This is the latest recevied weather packets stored in our database for station/object N2RDT. If no packets are shown the sender has not sent any weather packets the latest 10 day(s).
| Time | Temp. | Humidity | Pressure | Rain* | Wind** | Luminosity | Snow |
|---|---|---|---|---|---|---|---|
| 1777739324 | 11.67° C | 92% | 1014.3 hPa | 0.51 mm | - | 222 W/m² | - |
| 1777739020 | 11.11° C | 91% | 1014.3 hPa | 0 mm | - | 231 W/m² | - |
| 1777738717 | 11.11° C | 90% | 1014.3 hPa | 0.51 mm | - | 223 W/m² | - |
| 1777738413 | 11.11° C | 91% | 1014.2 hPa | 0 mm | - | 195 W/m² | - |
| 1777738111 | 11.11° C | 91% | 1014.1 hPa | 0 mm | - | 200 W/m² | - |
| 1777737810 | 11.11° C | 90% | 1014.3 hPa | 0 mm | - | 185 W/m² | - |
| 1777737508 | 11.11° C | 90% | 1014.2 hPa | 0 mm | - | 196 W/m² | - |
| 1777737206 | 11.11° C | 90% | 1014.2 hPa | 0 mm | - | 182 W/m² | - |
| 1777736901 | 11.11° C | 92% | 1014.3 hPa | 0 mm | - | 148 W/m² | - |
| 1777736288 | 11.11° C | 91% | 1013.8 hPa | 0 mm | - | 165 W/m² | - |
| 1777735984 | 11.11° C | 91% | 1013.9 hPa | 0 mm | - | 165 W/m² | - |
| 1777735681 | 11.11° C | 91% | 1014 hPa | 0 mm | - | 176 W/m² | - |
| 1777735379 | 11.11° C | 92% | 1014 hPa | 0 mm | - | 166 W/m² | - |
| 1777735076 | 11.11° C | 91% | 1014 hPa | 1.27 mm | - | 154 W/m² | - |
| 1777734773 | 11.11° C | 91% | 1014.1 hPa | 0.51 mm | - | 171 W/m² | - |
| 1777734471 | 11.11° C | 91% | 1014.3 hPa | 0.51 mm | - | 168 W/m² | - |
| 1777734167 | 11.11° C | 91% | 1014.3 hPa | 0.51 mm | - | 155 W/m² | - |
| 1777733863 | 11.11° C | 90% | 1014.4 hPa | 0.51 mm | - | 139 W/m² | - |
| 1777733560 | 11.11° C | 90% | 1014.3 hPa | 0.51 mm | - | 138 W/m² | - |
| 1777733257 | 11.11° C | 90% | 1014.3 hPa | 0.51 mm | - | 154 W/m² | - |
| 1777732954 | 11.11° C | 90% | 1014.4 hPa | 0.51 mm | - | 151 W/m² | - |
| 1777732649 | 11.11° C | 91% | 1014.2 hPa | 0.51 mm | - | 146 W/m² | - |
| 1777732347 | 11.11° C | 92% | 1014.1 hPa | 1.27 mm | - | 148 W/m² | - |
| 1777732045 | 11.11° C | 93% | 1013.9 hPa | 1.27 mm | - | 141 W/m² | - |
| 1777731741 | 11.11° C | 93% | 1013.9 hPa | 1.27 mm | - | 133 W/m² | - |
* Rain latest hour (hover to see other rain measurements)
** Current wind speed in m/s (hover to see current wind gust speed)